Regional Weather Roundup
Issued by NWS

Home | Current Version | Previous Version | Text Only | Print | Product List | Glossary Off
Versions: 1 2 3 4 5 6 7 8 9 10 11 12 13 14 15 16 17 18 19 20 21 22 23 24 25 26 27 28 29 30 31 32 33 34 35 36 37 38 39 40 41 42 43 44 45 46 47 48 49 50

000
ASUS43 KDTX 180201
RWRMI
MICHIGAN HOURLY REGIONAL WEATHER ROUNDUP
NATIONAL WEATHER SERVICE DETROIT/PONTIAC MI
1000 PM EDT TUE OCT 17 2017

NOTE: "FAIR" INDICATES FEW OR NO CLOUDS BELOW 12,000 FEET WITH NO
SIGNIFICANT WEATHER AND/OR OBSTRUCTION TO VISIBILITY.

MIZ047>049-052>055-059>063-066>070-074>076-081>083-180300-
SOUTHEAST LOWER MICHIGAN

CITY           SKY/WX    TMP DP  RH WIND       PRES   REMARKS
ADRIAN         CLEAR     51  40  65 SW6       30.21R
ALMA           CLOUDY    57  40  51 SW7       30.14R
ANN ARBOR      CLEAR     51  41  68 S5        30.19R
BAD AXE        CLEAR     55  45  68 W5        30.14R
CARO           CLEAR     53  42  66 S5        30.14R
DETROIT CITY   CLEAR     60  41  49 SW12      30.18R
DETROIT        PTCLDY    55  42  61 S9        30.20R
FLINT          MOCLDY    57  42  57 SW3       30.16R
GROSSE ILE     CLEAR     58  42  54 SW5       30.19R
HILLSDALE      CLEAR     54  37  54 SW6       30.20R
HOWELL         CLOUDY    56  42  60 SW3       30.17R

CITY           SKY/WX    TMP DP  RH WIND       PRES   REMARKS
JACKSON        CLEAR     57  41  55 S12       30.19R
LAMBERTVILLE   CLEAR     58  41  53 SW6       30.21R
LANSING        CLOUDY    55  41  59 SW6       30.17R
LAPEER         FAIR      52  43  73 CALM      30.17R
MASON          CLOUDY    58  42  54 SW5       30.17S
MONROE         CLEAR     56  40  53 SW6       30.19R
MT. CLEMENS    CLOUDY    60  42  51 SW9       30.16R
PONTIAC        MOCLDY    58  42  55 SW7       30.16R
PORT HOPE        N/A     59  47  64 W8        30.10R
PORT HURON     MOCLDY    59  43  55 SW3       30.16R
TRI CITIES     CLEAR     56  46  69 SW7       30.14R
MIDLAND        FAIR      49  46  86 CALM      30.12S
TROY           PTCLDY    59  40  49 SW7       30.19R
SAGINAW HB     CLEAR     54  43  66 S6        30.14R
$$
MIZ043>046-050>051-056>058-064>065-071>073-077>080-180300-
SOUTHWEST LOWER MICHIGAN

CITY           SKY/WX    TMP DP  RH WIND       PRES   REMARKS
BATTLE CREEK   CLEAR     53  43  68 S9        30.18R
BENTON HARBOR  CLEAR     58  40  51 S6        30.16R
BIG RAPIDS     CLEAR     49  45  85 CALM      30.12R
COLDWATER      CLEAR     54  39  56 SW6       30.20R
FREMONT        FAIR      55  48  76 CALM      30.11R
HOLLAND        PTCLDY    61  45  55 SW8       30.15R
GRAND RAPIDS   MOCLDY    57  44  62 S7        30.14S
IONIA          FAIR      53  41  62 S6        30.14S
KALAMAZOO      CLEAR     55  41  59 S7        30.18R
LUDINGTON      CLEAR     56  51  82 SE3       30.08R
MARSHALL       CLEAR     56  40  56 S3        30.18R
MOUNT PLEASANT CLEAR     57  43  59 CALM      30.12R
MUSKEGON       PTCLDY    62  51  67 SW12      30.12R
SOUTH HAVEN    CLEAR     58  41  53 S7        30.16R
$$
MIZ016>042-180300-
NORTHERN LOWER MICHIGAN

CITY           SKY/WX    TMP DP  RH WIND       PRES   REMARKS
ALPENA         CLEAR     48  45  89 CALM      30.08R
BEAVER ISLAND  CLEAR     55  52  88 S7        30.04S
BELLAIRE       CLEAR     46  45  95 CALM      30.08R
CADILLAC       CLEAR     54  46  75 SW8       30.09S
CHARLEVOIX     CLEAR     55  47  75 S6        30.08S
FRANKFORT      CLEAR     49  48  96 CALM      30.06S
GAYLORD        CLEAR     49  43  80 SW5       30.08R
GRAYLING       CLEAR     45  42  92 CALM      30.10S
HARBOR SPRINGS CLEAR     54  47  79 CALM      30.06S
HOUGHTON LAKE  CLEAR     50  45  83 S3        30.10S
MANISTEE       CLEAR     50  47  89 CALM      30.07S
OSCODA         CLEAR     52  45  78 SW3       30.10R
PELLSTON       CLEAR     42  42 100 CALM      30.06S
ROGERS CITY    CLEAR     51  46  81 SW5       30.08R
TRAVERSE CITY  PTCLDY    57  46  66 VRB3      30.05S
$$
MIZ007>008-015-180300-
EASTERN UPPER MICHIGAN

CITY           SKY/WX    TMP DP  RH WIND       PRES   REMARKS
KINROSS        CLEAR     47  45  93 CALM      30.05S
MACKINAC ISLAN CLEAR     55  48  79 SW6       30.05S
NEWBERRY       CLEAR     46  45  97 S6        30.02S
S. S. MARIE    CLEAR     46  43  89 CALM      30.03F
MUNISING         N/A     50  46  86 S6        29.98F
$$
MIZ004>006-011>014-085-180300-
CENTRAL UPPER MICHIGAN

CITY           SKY/WX    TMP DP  RH WIND       PRES   REMARKS
MANISTIQUE     CLEAR     55  49  81 SW6       30.01S
ESCANABA       CLEAR     56  53  90 S6        30.00S
MENOMINEE      CLEAR     55  48  77 CALM      30.02R
SAWYER-GWINN   CLEAR     52  45  76 S8        29.98S
$$
MIZ001>003-009>011-084-180300-
WESTERN UPPER MICHIGAN

CITY           SKY/WX    TMP DP  RH WIND       PRES   REMARKS
IRON MOUNTAIN  CLEAR     56  43  61 S6        29.98S
HOUGHTON       CLEAR     51  43  74 E6        29.92F
COPPER HARBOR    N/A     54  48  80 SW10G20   29.92F
IRONWOOD       CLEAR     60  42  51 S8        29.92S
$$

ABBREVIATIONS USED IN REMARKS
   TC - TEMPERATURE IN CELSIUS
  WCI - WIND CHILL INDEX
   HX - HEAT INDEX
  VSB - VISIBILITY





USA.gov is the U.S. government's official web portal to all federal, state and local government web resources and services.